Time,TemperatureF,DewpointF,PressureIn,WindDirection,WindDirectionDegrees,WindSpeedMPH,WindSpeedGustMPH,Humidity,HourlyPrecipIn,Conditions,Clouds,dailyrainin,SoftwareType,DateUTC
2013-08-05 00:02:00,56.0,54.0,30.03,NNW,343,3.0,4.0,92,-99.99,,,-99.99,,2013-08-05 07:02:00,
2013-08-05 00:12:00,56.0,54.0,30.03,NNW,330,4.0,5.0,92,-99.99,,,-99.99,,2013-08-05 07:12:00,
2013-08-05 00:22:00,56.0,54.0,30.03,NNW,333,3.0,4.0,93,-99.99,,,-99.99,,2013-08-05 07:22:00,
2013-08-05 00:32:00,56.0,54.0,30.03,NW,321,2.0,3.0,93,-99.99,,,-99.99,,2013-08-05 07:32:00,
2013-08-05 00:43:00,56.0,54.0,30.03,NW,325,3.0,3.0,93,-99.99,,,-99.99,,2013-08-05 07:43:00,
2013-08-05 00:53:00,56.0,54.0,30.03,NNW,328,2.0,3.0,93,-99.99,,,-99.99,,2013-08-05 07:53:00,
2013-08-05 01:02:00,56.0,54.0,30.03,NNW,343,2.0,3.0,93,-99.99,,,-99.99,,2013-08-05 08:02:00,
2013-08-05 01:12:00,55.0,53.0,30.03,NNW,341,2.0,4.0,93,-99.99,,,-99.99,,2013-08-05 08:12:00,
2013-08-05 01:22:00,55.0,53.0,30.03,NNW,336,4.0,6.0,94,-99.99,,,-99.99,,2013-08-05 08:22:00,
2013-08-05 01:34:00,55.0,53.0,30.03,NNW,336,4.0,5.0,94,-99.99,,,-99.99,,2013-08-05 08:34:00,
2013-08-05 01:45:00,55.0,53.0,30.03,NNW,338,3.0,4.0,94,-99.99,,,-99.99,,2013-08-05 08:45:00,
2013-08-05 01:53:00,55.0,53.0,30.03,NNW,341,4.0,6.0,94,-99.99,,,-99.99,,2013-08-05 08:53:00,
2013-08-05 02:04:00,55.0,53.0,30.03,NNW,334,4.0,6.0,94,-99.99,,,-99.99,,2013-08-05 09:04:00,
2013-08-05 02:14:00,55.0,53.0,30.03,NNW,328,3.0,4.0,94,-99.99,,,-99.99,,2013-08-05 09:14:00,
2013-08-05 02:23:00,55.0,53.0,30.03,NNW,337,3.0,4.0,94,-99.99,,,-99.99,,2013-08-05 09:23:00,
2013-08-05 02:35:00,55.0,53.0,30.02,NNW,329,2.0,3.0,95,-99.99,,,-99.99,,2013-08-05 09:35:00,
2013-08-05 02:45:00,55.0,53.0,30.02,NNW,331,3.0,4.0,95,-99.99,,,-99.99,,2013-08-05 09:45:00,
2013-08-05 03:05:00,55.0,54.0,30.02,NNW,333,3.0,4.0,95,-99.99,,,-99.99,,2013-08-05 10:05:00,
2013-08-05 03:13:00,55.0,54.0,30.02,NNW,329,3.0,5.0,95,-99.99,,,-99.99,,2013-08-05 10:13:00,
2013-08-05 03:23:00,55.0,54.0,30.02,NNW,329,3.0,5.0,95,-99.99,,,-99.99,,2013-08-05 10:23:00,
2013-08-05 03:32:00,55.0,54.0,30.02,NW,321,3.0,4.0,95,-99.99,,,-99.99,,2013-08-05 10:32:00,
2013-08-05 03:45:00,55.0,54.0,30.02,NW,321,3.0,4.0,95,-99.99,,,-99.99,,2013-08-05 10:45:00,
2013-08-05 03:52:00,55.0,54.0,30.02,NW,322,3.0,4.0,95,-99.99,,,-99.99,,2013-08-05 10:52:00,
2013-08-05 04:04:00,55.0,54.0,30.02,NW,310,1.0,3.0,95,-99.99,,,-99.99,,2013-08-05 11:04:00,
2013-08-05 04:23:00,55.0,54.0,30.02,NW,318,3.0,4.0,95,-99.99,,,-99.99,,2013-08-05 11:23:00,
2013-08-05 04:46:00,55.0,54.0,30.02,WNW,291,3.0,4.0,96,-99.99,,,-99.99,,2013-08-05 11:46:00,
2013-08-05 05:04:00,54.0,53.0,30.02,NW,326,3.0,4.0,96,-99.99,,,-99.99,,2013-08-05 12:04:00,
2013-08-05 05:14:00,54.0,53.0,30.03,NW,325,4.0,5.0,96,-99.99,,,-99.99,,2013-08-05 12:14:00,
2013-08-05 05:24:00,54.0,53.0,30.03,NNW,328,3.0,4.0,96,-99.99,,,-99.99,,2013-08-05 12:24:00,
2013-08-05 05:33:00,54.0,53.0,30.03,NNW,334,3.0,5.0,96,-99.99,,,-99.99,,2013-08-05 12:33:00,
2013-08-05 05:45:00,54.0,53.0,30.03,NNW,328,2.0,3.0,96,-99.99,,,-99.99,,2013-08-05 12:45:00,
2013-08-05 05:54:00,54.0,53.0,30.03,NW,326,4.0,5.0,96,-99.99,,,-99.99,,2013-08-05 12:54:00,
2013-08-05 06:02:00,54.0,53.0,30.03,NW,310,4.0,6.0,96,-99.99,,,-99.99,,2013-08-05 13:02:00,
2013-08-05 06:13:00,54.0,53.0,30.03,NW,314,2.0,3.0,96,-99.99,,,-99.99,,2013-08-05 13:13:00,
2013-08-05 06:34:00,54.0,52.0,30.03,NW,305,2.0,4.0,96,-99.99,,,-99.99,,2013-08-05 13:34:00,
2013-08-05 06:43:00,53.0,52.0,30.03,West,278,2.0,3.0,96,-99.99,,,-99.99,,2013-08-05 13:43:00,
2013-08-05 06:53:00,54.0,53.0,30.03,West,277,4.0,4.0,96,-99.99,,,-99.99,,2013-08-05 13:53:00,
2013-08-05 07:14:00,54.0,53.0,30.04,West,271,3.0,5.0,96,-99.99,,,-99.99,,2013-08-05 14:14:00,
2013-08-05 07:44:00,54.0,53.0,30.04,West,271,1.0,1.0,96,-99.99,,,-99.99,,2013-08-05 14:44:00,
2013-08-05 07:53:00,54.0,53.0,30.04,WSW,246,1.0,2.0,96,-99.99,,,-99.99,,2013-08-05 14:53:00,
2013-08-05 08:04:00,54.0,53.0,30.04,WNW,292,1.0,2.0,96,-99.99,,,-99.99,,2013-08-05 15:04:00,
2013-08-05 08:54:00,54.0,53.0,30.05,WSW,253,1.0,2.0,96,-99.99,,,-99.99,,2013-08-05 15:54:00,
2013-08-05 09:04:00,54.0,53.0,30.05,WSW,256,2.0,3.0,96,-99.99,,,-99.99,,2013-08-05 16:04:00,
2013-08-05 09:23:00,55.0,54.0,30.05,West,261,1.0,2.0,96,-99.99,,,-99.99,,2013-08-05 16:23:00,
2013-08-05 09:33:00,56.0,54.0,30.05,NNW,328,3.0,4.0,96,-99.99,,,-99.99,,2013-08-05 16:33:00,
2013-08-05 10:03:00,56.0,54.0,30.05,NNW,332,3.0,4.0,94,-99.99,,,-99.99,,2013-08-05 17:03:00,
2013-08-05 10:14:00,56.0,54.0,30.05,NNW,332,3.0,4.0,94,-99.99,,,-99.99,,2013-08-05 17:14:00,
2013-08-05 10:22:00,56.0,54.0,30.06,WNW,286,2.0,3.0,94,-99.99,,,-99.99,,2013-08-05 17:22:00,
2013-08-05 11:04:00,57.0,54.0,30.06,NNW,331,5.0,7.0,90,-99.99,,,-99.99,,2013-08-05 18:04:00,
2013-08-05 11:13:00,58.0,54.0,30.06,NNW,334,4.0,6.0,89,-99.99,,,-99.99,,2013-08-05 18:13:00,
2013-08-05 11:44:00,59.0,55.0,30.07,NW,324,4.0,6.0,86,-99.99,,,-99.99,,2013-08-05 18:44:00,
2013-08-05 11:53:00,59.0,54.0,30.07,NW,307,4.0,6.0,84,-99.99,,,-99.99,,2013-08-05 18:53:00,
2013-08-05 12:05:00,59.0,55.0,30.07,NNW,335,4.0,7.0,83,-99.99,,,-99.99,,2013-08-05 19:05:00,
2013-08-05 12:14:00,60.0,54.0,30.07,NW,315,4.0,8.0,81,-99.99,,,-99.99,,2013-08-05 19:14:00,
2013-08-05 12:23:00,60.0,54.0,30.07,NW,317,5.0,8.0,80,-99.99,,,-99.99,,2013-08-05 19:23:00,
2013-08-05 12:33:00,60.0,54.0,30.07,NW,313,5.0,8.0,80,-99.99,,,-99.99,,2013-08-05 19:33:00,
2013-08-05 13:04:00,62.0,54.0,30.07,NW,326,6.0,11.0,76,-99.99,,,-99.99,,2013-08-05 20:04:00,
2013-08-05 13:14:00,62.0,54.0,30.07,NNW,331,8.0,13.0,75,-99.99,,,-99.99,,2013-08-05 20:14:00,
2013-08-05 13:46:00,64.0,55.0,30.07,NW,326,7.0,11.0,71,-99.99,,,-99.99,,2013-08-05 20:46:00,
2013-08-05 13:54:00,65.0,55.0,30.07,NNW,333,8.0,12.0,69,-99.99,,,-99.99,,2013-08-05 20:54:00,
2013-08-05 14:04:00,67.0,55.0,30.06,NNW,331,7.0,12.0,66,-99.99,,,-99.99,,2013-08-05 21:04:00,
2013-08-05 14:14:00,67.0,54.0,30.06,NNW,330,7.0,12.0,63,-99.99,,,-99.99,,2013-08-05 21:14:00,
2013-08-05 14:23:00,68.0,55.0,30.06,NNW,333,8.0,13.0,63,-99.99,,,-99.99,,2013-08-05 21:23:00,
2013-08-05 14:33:00,69.0,55.0,30.06,NW,326,8.0,14.0,61,-99.99,,,-99.99,,2013-08-05 21:33:00,
2013-08-05 14:45:00,69.0,55.0,30.06,NNW,332,7.0,12.0,60,-99.99,,,-99.99,,2013-08-05 21:45:00,
2013-08-05 14:53:00,70.0,55.0,30.06,NW,323,6.0,12.0,59,-99.99,,,-99.99,,2013-08-05 21:53:00,
2013-08-05 15:04:00,70.0,55.0,30.05,NW,323,8.0,11.0,58,-99.99,,,-99.99,,2013-08-05 22:04:00,
2013-08-05 15:13:00,70.0,55.0,30.05,NW,325,8.0,13.0,58,-99.99,,,-99.99,,2013-08-05 22:13:00,
2013-08-05 15:23:00,70.0,55.0,30.05,NNW,327,9.0,15.0,58,-99.99,,,-99.99,,2013-08-05 22:23:00,
2013-08-05 15:43:00,70.0,54.0,30.05,NW,323,9.0,17.0,58,-99.99,,,-99.99,,2013-08-05 22:43:00,
2013-08-05 15:53:00,70.0,55.0,30.04,NW,316,11.0,17.0,58,-99.99,,,-99.99,,2013-08-05 22:53:00,
2013-08-05 16:03:00,69.0,54.0,30.04,NW,323,10.0,17.0,58,-99.99,,,-99.99,,2013-08-05 23:03:00,
2013-08-05 16:23:00,69.0,54.0,30.04,NW,319,10.0,16.0,58,-99.99,,,-99.99,,2013-08-05 23:23:00,
2013-08-05 16:45:00,69.0,54.0,30.03,NNW,332,11.0,18.0,59,-99.99,,,-99.99,,2013-08-05 23:45:00,
2013-08-05 17:02:00,68.0,54.0,30.03,NW,324,9.0,15.0,61,-99.99,,,-99.99,,2013-08-06 00:02:00,
2013-08-05 17:14:00,67.0,54.0,30.03,NW,317,11.0,19.0,61,-99.99,,,-99.99,,2013-08-06 00:14:00,
2013-08-05 17:24:00,67.0,54.0,30.03,NW,317,11.0,19.0,61,-99.99,,,-99.99,,2013-08-06 00:24:00,
2013-08-05 17:45:00,66.0,54.0,30.02,NW,325,10.0,17.0,64,-99.99,,,-99.99,,2013-08-06 00:45:00,
2013-08-05 18:14:00,66.0,54.0,30.01,NW,323,10.0,16.0,66,-99.99,,,-99.99,,2013-08-06 01:14:00,
2013-08-05 18:24:00,65.0,53.0,30.01,NW,322,9.0,14.0,65,-99.99,,,-99.99,,2013-08-06 01:24:00,
2013-08-05 18:35:00,64.0,53.0,30.01,NW,317,10.0,17.0,66,-99.99,,,-99.99,,2013-08-06 01:35:00,
2013-08-05 19:05:00,62.0,53.0,30.01,NW,309,10.0,16.0,71,-99.99,,,-99.99,,2013-08-06 02:05:00,
2013-08-05 19:13:00,62.0,53.0,30.00,NW,315,8.0,13.0,72,-99.99,,,-99.99,,2013-08-06 02:13:00,
2013-08-05 19:24:00,62.0,53.0,30.00,NW,315,8.0,13.0,72,-99.99,,,-99.99,,2013-08-06 02:24:00,
2013-08-05 19:32:00,60.0,53.0,30.00,NW,311,9.0,15.0,75,-99.99,,,-99.99,,2013-08-06 02:32:00,
2013-08-05 19:52:00,59.0,52.0,30.00,NW,317,7.0,12.0,78,-99.99,,,-99.99,,2013-08-06 02:52:00,
2013-08-05 20:01:00,58.0,52.0,30.00,NW,315,7.0,12.0,80,-99.99,,,-99.99,,2013-08-06 03:01:00,
2013-08-05 20:14:00,58.0,52.0,30.00,NNW,327,7.0,11.0,81,-99.99,,,-99.99,,2013-08-06 03:14:00,
2013-08-05 20:23:00,57.0,52.0,30.00,NNW,330,6.0,10.0,82,-99.99,,,-99.99,,2013-08-06 03:23:00,
2013-08-05 20:45:00,56.0,52.0,30.00,NW,325,4.0,8.0,85,-99.99,,,-99.99,,2013-08-06 03:45:00,
2013-08-05 20:52:00,56.0,51.0,30.00,NW,323,4.0,7.0,85,-99.99,,,-99.99,,2013-08-06 03:52:00,
2013-08-05 21:01:00,55.0,51.0,30.00,NNW,331,3.0,5.0,86,-99.99,,,-99.99,,2013-08-06 04:01:00,
2013-08-05 21:22:00,54.0,51.0,30.00,NNW,343,4.0,6.0,87,-99.99,,,-99.99,,2013-08-06 04:22:00,
2013-08-05 21:33:00,54.0,50.0,30.00,NNW,344,2.0,5.0,88,-99.99,,,-99.99,,2013-08-06 04:33:00,
2013-08-05 21:44:00,53.0,50.0,30.01,North,5,2.0,3.0,88,-99.99,,,-99.99,,2013-08-06 04:44:00,
2013-08-05 21:53:00,53.0,50.0,30.01,North,353,2.0,4.0,89,-99.99,,,-99.99,,2013-08-06 04:53:00,
2013-08-05 22:11:00,52.0,50.0,30.01,North,356,1.0,2.0,89,-99.99,,,-99.99,,2013-08-06 05:11:00,
2013-08-05 22:21:00,52.0,49.0,30.01,North,0,2.0,2.0,90,-99.99,,,-99.99,,2013-08-06 05:21:00,
2013-08-05 22:32:00,52.0,49.0,30.01,North,1,2.0,2.0,90,-99.99,,,-99.99,,2013-08-06 05:32:00,
2013-08-05 22:43:00,52.0,50.0,30.02,North,8,2.0,3.0,91,-99.99,,,-99.99,,2013-08-06 05:43:00,
2013-08-05 23:01:00,52.0,50.0,30.02,North,6,1.0,1.0,92,-99.99,,,-99.99,,2013-08-06 06:01:00,
2013-08-05 23:11:00,53.0,51.0,30.02,NE,50,1.0,1.0,92,-99.99,,,-99.99,,2013-08-06 06:11:00,
2013-08-05 23:43:00,53.0,51.0,30.02,SW,229,1.0,1.0,92,-99.99,,,-99.99,,2013-08-06 06:43:00,
2013-08-05 23:52:00,53.0,51.0,30.02,South,186,1.0,3.0,92,-99.99,,,-99.99,,2013-08-06 06:52:00,